Regional Weather Roundup
Issued by NWS

Home | Current Version | Previous Version | Graphics & Text | Print | Product List | Glossary On
Versions: 1 2 3 4 5 6 7 8 9 10 11 12 13 14 15 16 17 18 19 20 21 22 23 24 25 26 27 28 29 30 31 32 33 34 35 36 37 38 39 40 41 42 43 44 45 46 47 48 49 50
000
ASUS43 KOAX 050602
RWRNE

WEATHER ROUNDUP FOR NEBRASKA
NATIONAL WEATHER SERVICE OMAHA NE
1200 AM CST THU MAR 05 2015

NOTES: SATELLITE DATA IS BEING USED TO AUGMENT CLOUD COVER ABOVE
       12000 FEET.
       "FAIR" INDICATES FEW OR NO CLOUDS BELOW 12,000 FEET WITH NO
       SIGNIFICANT WEATHER AND/OR OBSTRUCTIONS TO VISIBILITY.

  * THESE STATIONS DO NOT REPORT WEATHER SUCH AS RAIN...SNOW OR FOG.

NEZ001>004-019>022-054>056-050700-
NEBRASKA PANHANDLE

CITY           SKY/WX    TMP DP  RH WIND       PRES   REMARKS
SCOTTSBLUFF    CLEAR     10   2  69 CALM      30.24S
6HR MIN TEMP:   9; 6HR MAX TEMP:  25;

ALLIANCE       CLEAR      3  -2  79 CALM      30.23S
6HR MIN TEMP:   2; 6HR MAX TEMP:  21;

CHADRON        PTCLDY    -3  -7  82 SW6       30.27S WCI -15
6HR MIN TEMP:  -4; 6HR MAX TEMP:  18;

KIMBALL        CLEAR     10   7  85 W6        30.20S WCI   1
SIDNEY         CLEAR      9   2  73 W10       30.25R WCI  -5
6HR MIN TEMP:   5; 6HR MAX TEMP:  25;

$$

NEZ057>060-069>072-079>082-050700-
SOUTHWEST NEBRASKA

CITY           SKY/WX    TMP DP  RH WIND       PRES   REMARKS
NORTH PLATTE   CLEAR      6  -2  69 E3        30.34S
6HR MIN TEMP:   6; 6HR MAX TEMP:  27;

IMPERIAL         N/A     15   7  70 CALM      30.31S
6HR MIN TEMP:  15; 6HR MAX TEMP:  26;

LEXINGTON      CLEAR     11   2  66 E5        30.38S WCI   3
MCCOOK         PTCLDY    15   4  61 CALM      30.36R
6HR MIN TEMP:  14; 6HR MAX TEMP:  31;

$$

NEZ005>010-023>029-035>040-094-050700-
NORTH CENTRAL NEBRASKA

CITY           SKY/WX    TMP DP  RH WIND       PRES   REMARKS
VALENTINE      CLEAR     -1  -5  82 SW7       30.34S WCI -14
6HR MIN TEMP:  -1; 6HR MAX TEMP:  15;

AINSWORTH      MOCLDY     3  -2  80 SW3       30.34S
BROKEN BOW     CLEAR      1  -6  72 CALM      30.36S
6HR MIN TEMP:   1; 6HR MAX TEMP:  24;

ORD            CLEAR      1  -6  72 SW5       30.39F WCI  -9
6HR MIN TEMP:  -1; 6HR MAX TEMP:  23;

$$

NEZ041-046>049-061>064-073>077-083>087-050700-
SOUTH CENTRAL NEBRASKA

CITY           SKY/WX    TMP DP  RH WIND       PRES   REMARKS
GRAND ISLAND   CLEAR      7  -3  64 N6        30.43R WCI  -3
6HR MIN TEMP:   4; 6HR MAX TEMP:  25;

HASTINGS       CLEAR      8  -1  66 NE3       30.41R
6HR MIN TEMP:   8; 6HR MAX TEMP:  27;

HEBRON         CLEAR     13   1  57 CALM      30.45R
KEARNEY *      CLEAR      9   0  66 CALM      30.40S
$$

NEZ011>018-030>034-042>045-050700-
NORTHEAST NEBRASKA

CITY           SKY/WX    TMP DP  RH WIND       PRES   REMARKS
NORFOLK        CLEAR      2  -6  69 CALM      30.43S
6HR MIN TEMP:   2; 6HR MAX TEMP:  19;

BLAIR          CLEAR      9  -3  58 N8        30.45S WCI  -4
COLUMBUS *     CLEAR      5 -11  47 E3        30.46R
FREMONT        CLEAR      9  -3  59 CALM      30.47S
TEKAMAH        CLEAR      6  -4  63 NE3       30.49F
6HR MIN TEMP:   5; 6HR MAX TEMP:  21;

$$

NEZ050>053-065>068-078-088>093-050700-
SOUTHEAST NEBRASKA

CITY           SKY/WX    TMP DP  RH WIND       PRES   REMARKS
LINCOLN        CLEAR      7  -3  64 N5        30.48S WCI  -2
6HR MIN TEMP:   6; 6HR MAX TEMP:  26;

OMAHA EPPLEY   CLEAR      8  -2  63 N8        30.49S WCI  -4
6HR MIN TEMP:   8; 6HR MAX TEMP:  23;

FALLS CITY     CLEAR     14   0  53 NE7       30.46S WCI   4
6HR MIN TEMP:  13; 6HR MAX TEMP:  28;

$$

NEZ044-045-051>053-067-050700-
OMAHA AREA

CITY           SKY/WX    TMP DP  RH WIND       PRES   REMARKS
OMAHA EPPLEY   CLEAR      8  -2  63 N8        30.49S WCI  -4
6HR MIN TEMP:   8; 6HR MAX TEMP:  23;

BLAIR          CLEAR      9  -3  58 N8        30.45S WCI  -4
FREMONT        CLEAR      9  -3  59 CALM      30.47S
OFFUTT AFB     CLEAR     10  -2  60 NE3       30.47S
$$



USA.gov is the U.S. government's official web portal to all federal, state and local government web resources and services.